Location: Newark
(29.9790°N, 31.1340°E)
Time: 09:47:33
(UTC+00:00)

Vanguard 3 - Pass Details

Date: 18 January 2021
Orbit: 508 x 3262 km, 33.4° (Epoch: 07 March)

Event Time Altitude Azimuth Distance (km) Brightness Sun altitude
Exits shadow 00:50:48 26° 107° (ESE) 2,557 9.9 -51.7°
Drops below altitude 10° 00:56:51 10° 81° (E) 4,272 11.3 -50.4°
Sets 01:01:48 0° 73° (ENE) 5,779 12.1 -49.4°
